JBU19 KBOS-KSAN

Flight info

Callsign JBU19
Flight time 3h 33m
Altitude 28000
Route BLZZR6 BLZZR BAF Q480 AIR J80 VHP/N0462F300 J80 MCI J24 SLN J18 KENTO/N0470F320 J18 HOGGZ LUCKI1
Aircraft A321/M-SDE3FGHIRWY/LB1

Departure

Time 2026-05-05 00:58
Airport Boston Logan International Airport (KBOS)

Arrival

Time 2026-05-05 04:32
Airport San Diego International Airport (KSAN)
Time Latitude Longitude Altitude Speed Heading
2026-05-05 00:30 42.36719 -71.01528 25 ft 0 kts 338°
2026-05-05 00:45 42.36704 -71.01520 24 ft 3 kts 338°
2026-05-05 00:46 42.36687 -71.01511 24 ft 3 kts 338°
2026-05-05 00:46 42.36674 -71.01504 24 ft 0 kts 330°
2026-05-05 00:46 42.36666 -71.01498 24 ft 3 kts 301°
2026-05-05 00:46 42.36662 -71.01474 24 ft 3 kts 241°
2026-05-05 00:47 42.36674 -71.01458 26 ft 3 kts 190°
2026-05-05 00:47 42.36692 -71.01457 22 ft 2 kts 169°
2026-05-05 00:47 42.36702 -71.01460 23 ft 0 kts 164°
2026-05-05 00:49 42.36688 -71.01455 22 ft 1 kts 165°
2026-05-05 00:49 42.36677 -71.01447 24 ft 1 kts 135°
2026-05-05 00:49 42.36674 -71.01429 22 ft 4 kts 104°
2026-05-05 00:49 42.36667 -71.01370 23 ft 6 kts 92°
2026-05-05 00:50 42.36686 -71.01341 24 ft 3 kts 41°
2026-05-05 00:50 42.36693 -71.01329 24 ft 0 kts 50°
2026-05-05 00:50 42.36730 -71.01259 28 ft 16 kts 30°
2026-05-05 00:51 42.36835 -71.01273 26 ft 15 kts 19°
2026-05-05 00:51 42.36871 -71.01240 24 ft 0 kts 38°
2026-05-05 00:51 42.36874 -71.01236 26 ft 1 kts 38°
2026-05-05 00:51 42.36901 -71.01206 24 ft 7 kts 42°
2026-05-05 00:52 42.36959 -71.01139 27 ft 15 kts 36°
2026-05-05 00:52 42.37057 -71.01063 22 ft 17 kts 26°
2026-05-05 00:52 42.37165 -71.00992 22 ft 17 kts 26°
2026-05-05 00:52 42.37268 -71.00924 23 ft 17 kts 26°
2026-05-05 00:53 42.37374 -71.00865 22 ft 16 kts 20°
2026-05-05 00:53 42.37475 -71.00819 23 ft 15 kts 18°
2026-05-05 00:53 42.37551 -71.00785 24 ft 0 kts 18°
2026-05-05 00:54 42.37554 -71.00784 24 ft 4 kts 18°
2026-05-05 00:55 42.37605 -71.00761 28 ft 8 kts 18°
2026-05-05 00:55 42.37651 -71.00736 30 ft 6 kts 26°
2026-05-05 00:55 42.37686 -71.00715 28 ft 9 kts 23°
2026-05-05 00:55 42.37751 -71.00687 29 ft 9 kts 19°
2026-05-05 00:56 42.37810 -71.00655 29 ft 10 kts 26°
2026-05-05 00:56 42.37836 -71.00577 28 ft 10 kts 96°
2026-05-05 00:56 42.37835 -71.00572 28 ft 0 kts 99°
2026-05-05 00:57 42.37835 -71.00569 28 ft 2 kts 99°
2026-05-05 00:57 42.37814 -71.00496 30 ft 8 kts 125°
2026-05-05 00:57 42.37701 -71.00519 27 ft 28 kts 204°
2026-05-05 00:58 42.37297 -71.00711 21 ft 95 kts 199°
2026-05-05 00:58 42.36490 -71.01089 39 ft 147 kts 198°
2026-05-05 00:58 42.35455 -71.01558 420 ft 161 kts 201°
2026-05-05 00:58 42.34346 -71.01926 926 ft 175 kts 181°
2026-05-05 00:59 42.33160 -71.01158 1288 ft 212 kts 144°
2026-05-05 00:59 42.32169 -70.99569 1990 ft 225 kts 134°
2026-05-05 00:59 42.31364 -70.97853 2813 ft 214 kts 120°
2026-05-05 00:59 42.31096 -70.95884 3192 ft 221 kts 92°
2026-05-05 01:00 42.31385 -70.93787 3338 ft 231 kts 77°
2026-05-05 01:00 42.31738 -70.91653 3554 ft 233 kts 80°
2026-05-05 01:00 42.32055 -70.89500 3809 ft 234 kts 80°
2026-05-05 01:00 42.32367 -70.87291 3952 ft 246 kts 79°
2026-05-05 01:01 42.32697 -70.84935 4077 ft 261 kts 79°
2026-05-05 01:01 42.33011 -70.82635 4431 ft 240 kts 79°
2026-05-05 01:01 42.33299 -70.80434 4736 ft 236 kts 80°
2026-05-05 01:01 42.33247 -70.78242 4960 ft 235 kts 114°
2026-05-05 01:02 42.32363 -70.76446 5178 ft 228 kts 137°
2026-05-05 01:02 42.31269 -70.74896 5397 ft 227 kts 142°
2026-05-05 01:02 42.30058 -70.73541 5619 ft 225 kts 150°
2026-05-05 01:02 42.28700 -70.72520 5839 ft 221 kts 163°
2026-05-05 01:03 42.27241 -70.71957 6051 ft 216 kts 178°
2026-05-05 01:03 42.25757 -70.71904 6270 ft 211 kts 192°
2026-05-05 01:03 42.24329 -70.72221 6471 ft 211 kts 196°
2026-05-05 01:03 42.22882 -70.72557 6678 ft 212 kts 196°
2026-05-05 01:04 42.21468 -70.73057 6876 ft 208 kts 208°
2026-05-05 01:04 42.19216 -70.75312 7252 ft 201 kts 236°
2026-05-05 01:04 42.18476 -70.76956 7370 ft 211 kts 255°
2026-05-05 01:05 42.18439 -70.78969 7447 ft 225 kts 288°
2026-05-05 01:05 42.19281 -70.80828 7568 ft 245 kts 311°
2026-05-05 01:05 42.20563 -70.82475 7777 ft 261 kts 315°
2026-05-05 01:05 42.21940 -70.84114 8249 ft 265 kts 316°
2026-05-05 01:06 42.23333 -70.85766 8766 ft 268 kts 316°
2026-05-05 01:06 42.24575 -70.87613 9303 ft 257 kts 302°
2026-05-05 01:06 42.25294 -70.89579 9823 ft 214 kts 280°
2026-05-05 01:06 42.25265 -70.91473 10127 ft 203 kts 265°
2026-05-05 01:07 42.25130 -70.93379 10262 ft 205 kts 267°
2026-05-05 01:07 42.25029 -70.95329 10363 ft 213 kts 268°
2026-05-05 01:07 42.25002 -70.95926 10396 ft 217 kts 268°
2026-05-05 01:07 42.24925 -70.97754 10477 ft 231 kts 268°
2026-05-05 01:08 42.24835 -71.00002 10607 ft 247 kts 268°
2026-05-05 01:08 42.24742 -71.02388 10728 ft 263 kts 268°
2026-05-05 01:08 42.24643 -71.04931 10892 ft 279 kts 268°
2026-05-05 01:08 42.24534 -71.07623 11021 ft 295 kts 268°
2026-05-05 01:09 42.24421 -71.10461 11139 ft 310 kts 267°
2026-05-05 01:09 42.24305 -71.13441 11270 ft 325 kts 267°
2026-05-05 01:09 42.24185 -71.16554 11406 ft 339 kts 267°
2026-05-05 01:09 42.24059 -71.19796 11537 ft 353 kts 267°
2026-05-05 01:10 42.23926 -71.23168 11675 ft 366 kts 267°
2026-05-05 01:10 42.23788 -71.26644 11832 ft 376 kts 267°
2026-05-05 01:10 42.23647 -71.30192 12252 ft 380 kts 267°
2026-05-05 01:10 42.23508 -71.33719 12719 ft 383 kts 267°
2026-05-05 01:11 42.23365 -71.37321 13223 ft 385 kts 266°
2026-05-05 01:11 42.23218 -71.40949 13721 ft 388 kts 266°
2026-05-05 01:11 42.23067 -71.44599 14164 ft 390 kts 266°
2026-05-05 01:11 42.22917 -71.48257 14609 ft 392 kts 266°
2026-05-05 01:12 42.22767 -71.51942 15041 ft 393 kts 266°
2026-05-05 01:12 42.22618 -71.55588 15457 ft 395 kts 266°
2026-05-05 01:12 42.22462 -71.59300 15856 ft 397 kts 267°
2026-05-05 01:12 42.22300 -71.63029 16251 ft 399 kts 267°
2026-05-05 01:13 42.22136 -71.66782 16638 ft 401 kts 267°
2026-05-05 01:13 42.21973 -71.70548 17023 ft 403 kts 267°
2026-05-05 01:13 42.21808 -71.74332 17403 ft 405 kts 267°
2026-05-05 01:13 42.21637 -71.78043 18163 ft 381 kts 266°
2026-05-05 01:14 42.21462 -71.81426 18739 ft 339 kts 266°
2026-05-05 01:14 42.21296 -71.84422 18896 ft 299 kts 266°
2026-05-05 01:14 42.21145 -71.87050 18992 ft 265 kts 266°
2026-05-05 01:14 42.21010 -71.89406 19132 ft 239 kts 266°
2026-05-05 01:15 42.20885 -71.91564 19267 ft 222 kts 266°
2026-05-05 01:15 42.20771 -71.93564 19674 ft 208 kts 267°
2026-05-05 01:15 42.20664 -71.95540 19747 ft 216 kts 266°
2026-05-05 01:15 42.20562 -71.97723 19195 ft 253 kts 267°
2026-05-05 01:16 42.20467 -72.00185 19063 ft 270 kts 266°
2026-05-05 01:16 42.20360 -72.02675 19570 ft 266 kts 267°
2026-05-05 01:16 42.20266 -72.05233 19625 ft 279 kts 268°
2026-05-05 01:16 42.20183 -72.07867 19879 ft 285 kts 268°
2026-05-05 01:17 42.20092 -72.10599 19948 ft 297 kts 268°
2026-05-05 01:17 42.19996 -72.13404 20259 ft 300 kts 268°
2026-05-05 01:17 42.19894 -72.16214 20609 ft 301 kts 268°
2026-05-05 01:17 42.19781 -72.19039 20906 ft 302 kts 268°
2026-05-05 01:18 42.19657 -72.21901 21082 ft 309 kts 268°
2026-05-05 01:18 42.19540 -72.24835 21220 ft 317 kts 268°
2026-05-05 01:18 42.19420 -72.27848 21339 ft 325 kts 268°
2026-05-05 01:18 42.19197 -72.30926 21470 ft 334 kts 265°
2026-05-05 01:19 42.18901 -72.34073 21603 ft 342 kts 264°
2026-05-05 01:19 42.18593 -72.37295 21750 ft 351 kts 264°
2026-05-05 01:19 42.18283 -72.40552 21874 ft 359 kts 264°
2026-05-05 01:19 42.17967 -72.43925 22011 ft 367 kts 265°
2026-05-05 01:20 42.17684 -72.47377 22148 ft 374 kts 266°
2026-05-05 01:20 42.17434 -72.50908 22286 ft 381 kts 266°
2026-05-05 01:20 42.17207 -72.54505 22422 ft 388 kts 267°
2026-05-05 01:20 42.16993 -72.58160 22562 ft 394 kts 267°
2026-05-05 01:21 42.16778 -72.61873 22697 ft 400 kts 267°
2026-05-05 01:21 42.16558 -72.65641 22834 ft 406 kts 266°
2026-05-05 01:21 42.16128 -72.69437 22974 ft 413 kts 259°
2026-05-05 01:21 42.15259 -72.73166 23108 ft 421 kts 250°
2026-05-05 01:22 42.13954 -72.76736 23258 ft 430 kts 242°
2026-05-05 01:22 42.12408 -72.80209 23384 ft 435 kts 242°
2026-05-05 01:22 42.10845 -72.83718 23509 ft 439 kts 242°
2026-05-05 01:22 42.09270 -72.87263 23623 ft 443 kts 242°
2026-05-05 01:23 42.07682 -72.90845 23753 ft 447 kts 242°
2026-05-05 01:23 42.06086 -72.94447 24006 ft 448 kts 242°
2026-05-05 01:23 42.04487 -72.98049 24297 ft 448 kts 242°
2026-05-05 01:23 42.02880 -73.01654 24605 ft 448 kts 242°
2026-05-05 01:24 42.01302 -73.05189 24934 ft 447 kts 242°
2026-05-05 01:24 41.99704 -73.08770 25270 ft 446 kts 242°
2026-05-05 01:24 41.98107 -73.12344 25575 ft 446 kts 242°
2026-05-05 01:24 41.96512 -73.15908 25867 ft 445 kts 242°
2026-05-05 01:25 41.94912 -73.19471 26160 ft 445 kts 242°
2026-05-05 01:25 41.93314 -73.23031 26491 ft 445 kts 242°
2026-05-05 01:25 41.91719 -73.26588 26796 ft 444 kts 242°
2026-05-05 01:25 41.90118 -73.30149 27117 ft 444 kts 242°
2026-05-05 01:26 41.88525 -73.33691 27450 ft 443 kts 242°
2026-05-05 01:26 41.86933 -73.37226 27767 ft 442 kts 242°
2026-05-05 01:26 41.85344 -73.40762 27865 ft 442 kts 242°
2026-05-05 01:26 41.83762 -73.44286 27878 ft 441 kts 243°
2026-05-05 01:27 41.82178 -73.47811 27878 ft 441 kts 243°
2026-05-05 01:27 41.81126 -73.50145 27871 ft 441 kts 242°
2026-05-05 01:27 41.79535 -73.53663 27863 ft 442 kts 242°
2026-05-05 01:27 41.77415 -73.58323 27870 ft 441 kts 242°
2026-05-05 01:28 41.75819 -73.61836 27868 ft 442 kts 242°
2026-05-05 01:28 41.74226 -73.65354 27866 ft 442 kts 242°
2026-05-05 01:28 41.73152 -73.67727 27864 ft 441 kts 242°
2026-05-05 01:28 41.71561 -73.71231 27864 ft 440 kts 242°
2026-05-05 01:29 41.69986 -73.74689 27870 ft 440 kts 242°
2026-05-05 01:29 41.68389 -73.78187 27879 ft 440 kts 242°
2026-05-05 01:29 41.66759 -73.81659 27875 ft 442 kts 238°
2026-05-05 01:29 41.64830 -73.84874 27877 ft 445 kts 233°
2026-05-05 01:30 41.62798 -73.87994 27877 ft 445 kts 233°
2026-05-05 01:30 41.60765 -73.91117 27878 ft 445 kts 233°
2026-05-05 01:30 41.58734 -73.94235 27878 ft 445 kts 233°
2026-05-05 01:30 41.56705 -73.97352 27877 ft 445 kts 233°
2026-05-05 01:31 41.54674 -74.00475 27876 ft 445 kts 233°
2026-05-05 01:31 41.52643 -74.03594 27872 ft 444 kts 232°
2026-05-05 01:31 41.50639 -74.06666 27886 ft 444 kts 232°
2026-05-05 01:31 41.48607 -74.09775 27883 ft 445 kts 232°
2026-05-05 01:32 41.46570 -74.12884 27867 ft 445 kts 232°
2026-05-05 01:32 41.44526 -74.15996 27884 ft 446 kts 232°
2026-05-05 01:32 41.42485 -74.19101 28186 ft 445 kts 232°
2026-05-05 01:32 41.40447 -74.22197 28528 ft 444 kts 232°
2026-05-05 01:33 41.38415 -74.25286 28853 ft 443 kts 232°
2026-05-05 01:33 41.36385 -74.28371 29169 ft 442 kts 232°
2026-05-05 01:33 41.34360 -74.31447 29484 ft 441 kts 232°
2026-05-05 01:33 41.32340 -74.34516 29777 ft 441 kts 232°
2026-05-05 01:34 41.30340 -74.37550 30007 ft 441 kts 232°
2026-05-05 01:34 41.28311 -74.40621 30228 ft 441 kts 232°
2026-05-05 01:34 41.26286 -74.43683 30457 ft 441 kts 232°
2026-05-05 01:34 41.24300 -74.46787 30680 ft 439 kts 237°
2026-05-05 01:35 41.22496 -74.50074 30894 ft 438 kts 237°
2026-05-05 01:35 41.20703 -74.53347 31104 ft 438 kts 237°
2026-05-05 01:35 41.18905 -74.56617 31296 ft 438 kts 237°
2026-05-05 01:35 41.17103 -74.59888 31517 ft 438 kts 237°
2026-05-05 01:36 41.15294 -74.63162 31713 ft 438 kts 237°
2026-05-05 01:36 41.13489 -74.66430 31877 ft 439 kts 237°
2026-05-05 01:36 41.09855 -74.73002 31913 ft 444 kts 237°
2026-05-05 01:37 41.06215 -74.79569 31908 ft 445 kts 237°
2026-05-05 01:37 41.02545 -74.86181 31904 ft 445 kts 237°
2026-05-05 01:38 40.98878 -74.92783 31887 ft 445 kts 237°
2026-05-05 01:38 40.95269 -74.99463 31891 ft 445 kts 239°
2026-05-05 01:39 40.91945 -75.06365 31907 ft 445 kts 242°
2026-05-05 01:39 40.88691 -75.13327 31909 ft 445 kts 241°
2026-05-05 01:40 40.85378 -75.20234 31918 ft 445 kts 240°
2026-05-05 01:40 40.82013 -75.27121 31892 ft 446 kts 240°
2026-05-05 01:41 40.78661 -75.33943 31893 ft 446 kts 240°
2026-05-05 01:41 40.75515 -75.40980 31912 ft 443 kts 247°
2026-05-05 01:42 40.72803 -75.48296 31914 ft 444 kts 246°
2026-05-05 01:42 40.70083 -75.55596 31915 ft 444 kts 246°
2026-05-05 01:43 40.67348 -75.62901 31914 ft 444 kts 246°
2026-05-05 01:43 40.64604 -75.70196 31912 ft 444 kts 246°
2026-05-05 01:44 40.61852 -75.77490 31913 ft 445 kts 246°
2026-05-05 01:44 40.59100 -75.84791 31907 ft 445 kts 246°
2026-05-05 01:45 40.56339 -75.92077 31902 ft 445 kts 246°
2026-05-05 01:45 40.53561 -75.99360 31904 ft 445 kts 246°
2026-05-05 01:46 40.50786 -76.06633 31908 ft 445 kts 246°
2026-05-05 01:46 40.48022 -76.13851 31891 ft 445 kts 245°
2026-05-05 01:47 40.45226 -76.21127 31897 ft 445 kts 245°
2026-05-05 01:47 40.42437 -76.28396 31882 ft 446 kts 245°
2026-05-05 01:48 40.39638 -76.35657 31884 ft 446 kts 245°
2026-05-05 01:48 40.36832 -76.42906 31884 ft 446 kts 245°
2026-05-05 01:49 40.34027 -76.50155 31883 ft 446 kts 245°
2026-05-05 01:49 40.31197 -76.57321 31874 ft 446 kts 244°
2026-05-05 01:50 40.28299 -76.64498 31880 ft 446 kts 244°
2026-05-05 01:50 40.25397 -76.71690 31880 ft 446 kts 244°
2026-05-05 01:51 40.22506 -76.78870 31883 ft 446 kts 244°
2026-05-05 01:51 40.19602 -76.86049 31891 ft 446 kts 244°
2026-05-05 01:52 40.16707 -76.93211 31888 ft 445 kts 244°
2026-05-05 01:52 40.13808 -77.00375 31878 ft 445 kts 244°
2026-05-05 01:53 40.10906 -77.07519 31877 ft 445 kts 244°
2026-05-05 01:53 40.07995 -77.14659 31886 ft 445 kts 244°
2026-05-05 01:54 40.05087 -77.21799 31886 ft 445 kts 244°
2026-05-05 01:54 40.02174 -77.28933 31888 ft 445 kts 244°
2026-05-05 01:55 39.99245 -77.36054 31892 ft 445 kts 244°
2026-05-05 01:55 39.96658 -77.43297 31884 ft 442 kts 255°
2026-05-05 01:56 39.95777 -77.51158 31891 ft 438 kts 272°
2026-05-05 01:56 39.96045 -77.59091 31889 ft 438 kts 273°
2026-05-05 01:57 39.96284 -77.67047 31885 ft 439 kts 273°
2026-05-05 01:57 39.96515 -77.75011 31886 ft 440 kts 273°
2026-05-05 01:58 39.96745 -77.82926 31889 ft 440 kts 273°
2026-05-05 01:58 39.96982 -77.90924 31885 ft 440 kts 273°
2026-05-05 01:59 39.97214 -77.98901 31897 ft 440 kts 272°
2026-05-05 01:59 39.97433 -78.06883 31901 ft 440 kts 272°
2026-05-05 02:00 39.97649 -78.14795 31897 ft 439 kts 272°
2026-05-05 02:00 39.97863 -78.22765 31898 ft 439 kts 272°
2026-05-05 02:01 39.98067 -78.30728 31900 ft 439 kts 272°
2026-05-05 02:01 39.98256 -78.38692 31898 ft 439 kts 272°
2026-05-05 02:02 39.98450 -78.46646 31899 ft 439 kts 272°
2026-05-05 02:02 39.98645 -78.54610 31905 ft 439 kts 272°
2026-05-05 02:03 39.98833 -78.62577 31903 ft 439 kts 272°
2026-05-05 02:03 39.99008 -78.70497 31916 ft 439 kts 272°
2026-05-05 02:04 39.99177 -78.78467 31915 ft 439 kts 272°
2026-05-05 02:04 39.99338 -78.86436 31914 ft 439 kts 272°
2026-05-05 02:05 39.99502 -78.94393 31917 ft 439 kts 272°
2026-05-05 02:05 39.99657 -79.02352 31918 ft 439 kts 272°
2026-05-05 02:06 39.99806 -79.10310 31925 ft 438 kts 272°
2026-05-05 02:06 39.99952 -79.18209 31920 ft 438 kts 272°
2026-05-05 02:07 40.00093 -79.26149 31921 ft 438 kts 272°
2026-05-05 02:07 40.00230 -79.34091 31918 ft 438 kts 272°
2026-05-05 02:08 40.00352 -79.42038 31921 ft 438 kts 271°
2026-05-05 02:08 40.00475 -79.49989 31918 ft 438 kts 271°
2026-05-05 02:09 40.00592 -79.57932 31926 ft 438 kts 271°
2026-05-05 02:09 40.00705 -79.65846 31910 ft 438 kts 271°
2026-05-05 02:10 40.00808 -79.73789 31869 ft 438 kts 271°
2026-05-05 02:10 40.00910 -79.81735 31881 ft 438 kts 271°
2026-05-05 02:11 40.01007 -79.89687 31892 ft 438 kts 271°
2026-05-05 02:11 40.01089 -79.97628 31890 ft 438 kts 271°
2026-05-05 02:12 40.01211 -80.09543 31894 ft 438 kts 271°
2026-05-05 02:13 40.01293 -80.17487 31900 ft 438 kts 271°
2026-05-05 02:13 40.01360 -80.25441 31901 ft 437 kts 271°
2026-05-05 02:14 40.01416 -80.32029 31898 ft 437 kts 271°
2026-05-05 02:14 40.01481 -80.39955 31897 ft 437 kts 271°
2026-05-05 02:15 40.01532 -80.47879 31884 ft 437 kts 271°
2026-05-05 02:15 40.01579 -80.55802 31883 ft 437 kts 271°
2026-05-05 02:16 40.01629 -80.63718 31876 ft 436 kts 271°
2026-05-05 02:16 40.01669 -80.71642 31875 ft 436 kts 271°
2026-05-05 02:17 40.01704 -80.79505 31877 ft 436 kts 271°
2026-05-05 02:17 40.01689 -80.87429 31867 ft 436 kts 269°
2026-05-05 02:18 40.01563 -80.95344 31871 ft 436 kts 269°
2026-05-05 02:18 40.01418 -81.03259 31873 ft 436 kts 269°
2026-05-05 02:19 40.01293 -81.11166 31871 ft 436 kts 269°
2026-05-05 02:19 40.01169 -81.19065 31870 ft 435 kts 269°
2026-05-05 02:20 40.01047 -81.26910 31861 ft 435 kts 269°
2026-05-05 02:20 40.00907 -81.34810 31862 ft 435 kts 269°
2026-05-05 02:21 40.00744 -81.42712 31860 ft 435 kts 269°
2026-05-05 02:21 40.00575 -81.50607 31859 ft 435 kts 269°
2026-05-05 02:22 40.00414 -81.58434 31867 ft 435 kts 269°
2026-05-05 02:22 40.00258 -81.66329 31872 ft 435 kts 269°
2026-05-05 02:23 40.00095 -81.74211 31865 ft 434 kts 269°
2026-05-05 02:23 39.99916 -81.82087 31862 ft 434 kts 269°
2026-05-05 02:24 39.99741 -81.89920 31861 ft 434 kts 269°
2026-05-05 02:24 39.99717 -81.91015 31861 ft 434 kts 269°
2026-05-05 02:25 39.99628 -81.94926 31859 ft 434 kts 269°
2026-05-05 02:26 39.99584 -81.96840 31852 ft 434 kts 269°
2026-05-05 02:29 39.99531 -81.99075 31869 ft 434 kts 269°
2026-05-05 02:29 39.99348 -82.06948 31856 ft 434 kts 269°
2026-05-05 02:30 39.99163 -82.14811 31850 ft 434 kts 269°
2026-05-05 02:30 39.98964 -82.22675 31818 ft 433 kts 269°
2026-05-05 02:31 39.98752 -82.30528 31837 ft 433 kts 269°
2026-05-05 02:31 39.98542 -82.38376 31840 ft 433 kts 269°
2026-05-05 02:32 39.98326 -82.46217 31841 ft 432 kts 269°
2026-05-05 02:32 39.98110 -82.54045 31841 ft 432 kts 269°
2026-05-05 02:33 39.97892 -82.61881 31832 ft 432 kts 269°
2026-05-05 02:33 39.97661 -82.69704 31833 ft 432 kts 269°
2026-05-05 02:34 39.97423 -82.77521 31820 ft 432 kts 269°
2026-05-05 02:34 39.97182 -82.85297 31827 ft 432 kts 269°
2026-05-05 02:35 39.96936 -82.93119 31824 ft 431 kts 269°
2026-05-05 02:35 39.96686 -83.00943 31830 ft 431 kts 269°
2026-05-05 02:36 39.96469 -83.08754 31842 ft 431 kts 269°
2026-05-05 02:36 39.96345 -83.16571 31843 ft 431 kts 270°
2026-05-05 02:37 39.96185 -83.24384 31837 ft 431 kts 268°
2026-05-05 02:37 39.95906 -83.32182 31830 ft 430 kts 268°
2026-05-05 02:38 39.95605 -83.39967 31829 ft 430 kts 268°
2026-05-05 02:38 39.95328 -83.47697 31840 ft 430 kts 268°
2026-05-05 02:39 39.95052 -83.55483 31853 ft 429 kts 268°
2026-05-05 02:39 39.94781 -83.63241 31845 ft 428 kts 268°
2026-05-05 02:40 39.94498 -83.70995 31807 ft 427 kts 268°
2026-05-05 02:40 39.94209 -83.78727 31804 ft 427 kts 268°
2026-05-05 02:41 39.93908 -83.86470 31794 ft 427 kts 268°
2026-05-05 02:41 39.93603 -83.94193 31794 ft 426 kts 268°
2026-05-05 02:42 39.93296 -84.01855 31797 ft 426 kts 268°
2026-05-05 02:42 39.92982 -84.09555 31815 ft 425 kts 267°
2026-05-05 02:43 39.92664 -84.17252 31807 ft 425 kts 267°
2026-05-05 02:43 39.92342 -84.24939 31814 ft 425 kts 267°
2026-05-05 02:44 39.92017 -84.32613 31821 ft 424 kts 267°
2026-05-05 02:44 39.91692 -84.40221 31784 ft 423 kts 267°
2026-05-05 02:45 39.91357 -84.47870 31780 ft 422 kts 267°
2026-05-05 02:45 39.91017 -84.55503 31783 ft 422 kts 267°
2026-05-05 02:46 39.90669 -84.63131 31791 ft 422 kts 267°
2026-05-05 02:46 39.90326 -84.70761 31795 ft 421 kts 267°
2026-05-05 02:47 39.89975 -84.78380 31816 ft 421 kts 267°
2026-05-05 02:47 39.89611 -84.85994 31819 ft 420 kts 267°
2026-05-05 02:48 39.89255 -84.93546 31818 ft 420 kts 267°
2026-05-05 02:48 39.88886 -85.01147 31793 ft 420 kts 267°
2026-05-05 02:49 39.88509 -85.08738 31789 ft 419 kts 266°
2026-05-05 02:49 39.88133 -85.16303 31784 ft 418 kts 267°
2026-05-05 02:50 39.87760 -85.23865 31765 ft 418 kts 266°
2026-05-05 02:50 39.87375 -85.31417 31791 ft 417 kts 266°
2026-05-05 02:51 39.86985 -85.38950 31796 ft 417 kts 266°
2026-05-05 02:51 39.86593 -85.46434 31806 ft 416 kts 266°
2026-05-05 02:52 39.86193 -85.53946 31792 ft 415 kts 266°
2026-05-05 02:52 39.85789 -85.61441 31773 ft 415 kts 266°
2026-05-05 02:53 39.85385 -85.68925 31775 ft 414 kts 266°
2026-05-05 02:53 39.84971 -85.76400 31779 ft 414 kts 266°
2026-05-05 02:54 39.84556 -85.83865 31788 ft 414 kts 266°
2026-05-05 02:54 39.84136 -85.91338 31787 ft 413 kts 266°
2026-05-05 02:55 39.83709 -85.98799 31784 ft 413 kts 266°
2026-05-05 02:55 39.83277 -86.06254 31782 ft 413 kts 266°
2026-05-05 02:56 39.82845 -86.13714 31779 ft 413 kts 266°
2026-05-05 02:56 39.82411 -86.21121 31773 ft 413 kts 265°
2026-05-05 02:57 39.81969 -86.28575 31778 ft 413 kts 265°
2026-05-05 02:57 39.81523 -86.36020 31774 ft 413 kts 267°
2026-05-05 02:58 39.81629 -86.43485 31772 ft 413 kts 271°
2026-05-05 02:58 39.81787 -86.50947 31764 ft 413 kts 271°
2026-05-05 02:59 39.81929 -86.58410 31759 ft 413 kts 270°
2026-05-05 02:59 39.82072 -86.65874 31764 ft 413 kts 270°
2026-05-05 03:00 39.82213 -86.73340 31766 ft 413 kts 270°
2026-05-05 03:00 39.82379 -86.82274 31756 ft 413 kts 270°
2026-05-05 03:01 39.82640 -86.97216 31734 ft 413 kts 270°
2026-05-05 03:01 39.82874 -87.12213 31726 ft 415 kts 270°
2026-05-05 03:02 39.83097 -87.27256 31708 ft 416 kts 270°
2026-05-05 03:02 39.83304 -87.42330 31729 ft 417 kts 270°
2026-05-05 03:03 39.83490 -87.57425 31738 ft 417 kts 270°
2026-05-05 03:03 39.83646 -87.72445 31750 ft 417 kts 269°
2026-05-05 03:04 39.83788 -87.87525 31744 ft 416 kts 269°
2026-05-05 03:04 39.83896 -88.00109 31729 ft 415 kts 269°
2026-05-05 03:05 39.83986 -88.15108 31724 ft 414 kts 270°
2026-05-05 03:05 39.84079 -88.30009 31722 ft 414 kts 270°
2026-05-05 03:06 39.84156 -88.45035 31718 ft 414 kts 270°
2026-05-05 03:06 39.84193 -88.60043 31707 ft 414 kts 270°
2026-05-05 03:07 39.84229 -88.74939 31722 ft 414 kts 270°
2026-05-05 03:07 39.84247 -88.89937 31727 ft 414 kts 270°
2026-05-05 03:08 39.84236 -89.04939 31718 ft 414 kts 270°
2026-05-05 03:08 39.84206 -89.19943 31687 ft 414 kts 270°
2026-05-05 03:09 39.84150 -89.34926 31680 ft 414 kts 270°
2026-05-05 03:09 39.84085 -89.49810 31677 ft 414 kts 270°
2026-05-05 03:10 39.83988 -89.64802 31705 ft 414 kts 270°
2026-05-05 03:10 39.82929 -89.79718 31701 ft 414 kts 264°
2026-05-05 03:11 39.81609 -89.94623 31688 ft 414 kts 264°
2026-05-05 03:11 39.80268 -90.09524 31671 ft 414 kts 264°
2026-05-05 03:12 39.78905 -90.24396 31700 ft 414 kts 264°
2026-05-05 03:12 39.77532 -90.39271 31696 ft 414 kts 264°
2026-05-05 03:13 39.76130 -90.54092 31701 ft 413 kts 264°
2026-05-05 03:13 39.74733 -90.68753 31715 ft 412 kts 264°
2026-05-05 03:14 39.73303 -90.83517 31732 ft 411 kts 264°
2026-05-05 03:14 39.71867 -90.98232 32010 ft 409 kts 264°
2026-05-05 03:15 39.70408 -91.12865 31995 ft 408 kts 264°
2026-05-05 03:15 39.68950 -91.27451 31723 ft 406 kts 265°
2026-05-05 03:16 39.67475 -91.41917 31714 ft 404 kts 264°
2026-05-05 03:16 39.65985 -91.56361 31730 ft 403 kts 264°
2026-05-05 03:17 39.64490 -91.70753 31715 ft 401 kts 264°
2026-05-05 03:17 39.62975 -91.84997 31703 ft 400 kts 264°
2026-05-05 03:18 39.61438 -91.99326 31684 ft 401 kts 264°
2026-05-05 03:18 39.59912 -92.13696 31702 ft 403 kts 264°
2026-05-05 03:19 39.57520 -92.35283 31711 ft 404 kts 264°
2026-05-05 03:19 39.55931 -92.49607 31724 ft 404 kts 264°
2026-05-05 03:20 39.54311 -92.64031 31714 ft 403 kts 263°
2026-05-05 03:20 39.52665 -92.78367 31693 ft 402 kts 263°
2026-05-05 03:21 39.51023 -92.92694 31688 ft 402 kts 263°
2026-05-05 03:21 39.49357 -93.06984 31658 ft 402 kts 263°
2026-05-05 03:22 39.47647 -93.21375 31663 ft 405 kts 263°
2026-05-05 03:22 39.45934 -93.35719 31676 ft 407 kts 263°
2026-05-05 03:23 39.44205 -93.50210 31685 ft 407 kts 263°
2026-05-05 03:23 39.42432 -93.64690 31699 ft 407 kts 263°
2026-05-05 03:24 39.40642 -93.79171 31703 ft 407 kts 262°
2026-05-05 03:24 39.38846 -93.93630 31707 ft 406 kts 263°
2026-05-05 03:25 39.37039 -94.07952 31742 ft 406 kts 263°
2026-05-05 03:25 39.35212 -94.22335 31775 ft 405 kts 263°
2026-05-05 03:26 39.33379 -94.36673 31769 ft 403 kts 263°
2026-05-05 03:26 39.31522 -94.50950 31751 ft 402 kts 263°
2026-05-05 03:27 39.29659 -94.65206 31700 ft 402 kts 263°
2026-05-05 03:27 39.27815 -94.79450 31727 ft 402 kts 264°
2026-05-05 03:28 39.26270 -94.93757 31725 ft 402 kts 264°
2026-05-05 03:28 39.24639 -95.08012 31735 ft 401 kts 264°
2026-05-05 03:29 39.23026 -95.22012 31733 ft 407 kts 264°
2026-05-05 03:29 39.21324 -95.36572 31762 ft 411 kts 264°
2026-05-05 03:30 39.19597 -95.51078 31742 ft 407 kts 264°
2026-05-05 03:30 39.17883 -95.65429 31735 ft 404 kts 264°
2026-05-05 03:31 39.16169 -95.79709 31738 ft 401 kts 264°
2026-05-05 03:31 39.14439 -95.93848 31734 ft 398 kts 264°
2026-05-05 03:32 39.11863 -96.14687 31703 ft 392 kts 265°
2026-05-05 03:32 39.08431 -96.42039 31594 ft 393 kts 264°
2026-05-05 03:33 39.04929 -96.69413 31609 ft 388 kts 264°
2026-05-05 03:33 39.01350 -96.96621 31649 ft 383 kts 264°
2026-05-05 03:34 38.97741 -97.23773 31758 ft 382 kts 264°
2026-05-05 03:34 38.94055 -97.50912 31863 ft 384 kts 264°
2026-05-05 03:35 38.87819 -97.77387 31760 ft 393 kts 255°
2026-05-05 03:35 38.83843 -97.90319 31652 ft 390 kts 255°
2026-05-05 03:35 38.79885 -98.03037 31704 ft 386 kts 255°
2026-05-05 03:36 38.71977 -98.28323 31588 ft 385 kts 255°
2026-05-05 03:36 38.64116 -98.53250 31526 ft 380 kts 255°
2026-05-05 03:37 38.56166 -98.78232 31584 ft 377 kts 255°
2026-05-05 03:37 38.48215 -99.03005 31692 ft 374 kts 255°
2026-05-05 03:38 38.40217 -99.27658 31803 ft 374 kts 254°
2026-05-05 03:38 38.32198 -99.52217 31717 ft 377 kts 254°
2026-05-05 03:39 38.24116 -99.76761 31556 ft 378 kts 254°
2026-05-05 03:39 38.16023 -100.01128 31562 ft 373 kts 254°
2026-05-05 03:40 38.07891 -100.25359 31713 ft 369 kts 253°
2026-05-05 03:40 37.99741 -100.49432 31676 ft 373 kts 253°
2026-05-05 03:41 37.91526 -100.73323 31655 ft 378 kts 246°
2026-05-05 03:41 37.80598 -100.96009 31678 ft 376 kts 246°
2026-05-05 03:42 37.69634 -101.18634 31689 ft 378 kts 246°
2026-05-05 03:42 37.58591 -101.41241 31628 ft 381 kts 246°
2026-05-05 03:43 37.47524 -101.63784 31625 ft 377 kts 246°
2026-05-05 03:43 37.36407 -101.86238 31726 ft 376 kts 245°
2026-05-05 03:44 37.25236 -102.08695 31636 ft 380 kts 245°
2026-05-05 03:44 37.19624 -102.19889 31515 ft 381 kts 245°
2026-05-05 03:44 37.14016 -102.31044 31473 ft 380 kts 245°
2026-05-05 03:45 37.02779 -102.53303 31588 ft 376 kts 244°
2026-05-05 03:45 36.91484 -102.75538 31662 ft 379 kts 244°
2026-05-05 03:46 36.80208 -102.97607 31537 ft 382 kts 244°
2026-05-05 03:46 36.68828 -103.19698 31506 ft 378 kts 244°
2026-05-05 03:47 36.57409 -103.41675 31693 ft 375 kts 244°
2026-05-05 03:47 36.45959 -103.63635 31682 ft 380 kts 243°
2026-05-05 03:48 36.34458 -103.85577 31580 ft 382 kts 243°
2026-05-05 03:48 36.22869 -104.07491 31548 ft 381 kts 243°
2026-05-05 03:49 36.11296 -104.29226 31649 ft 379 kts 242°
2026-05-05 03:49 35.99584 -104.51122 31782 ft 381 kts 242°
2026-05-05 03:50 35.87802 -104.73007 31694 ft 386 kts 242°
2026-05-05 03:50 35.81889 -104.83939 31549 ft 386 kts 242°
2026-05-05 03:50 35.75947 -104.94868 31571 ft 387 kts 241°
2026-05-05 03:51 35.69976 -105.05831 31883 ft 386 kts 241°
2026-05-05 03:51 35.64496 -105.17093 31905 ft 377 kts 250°
2026-05-05 03:51 35.55980 -105.40926 31877 ft 380 kts 249°
2026-05-05 03:52 35.47382 -105.64852 31889 ft 383 kts 249°
2026-05-05 03:52 35.44543 -105.72661 31616 ft 372 kts 248°
2026-05-05 03:52 35.38965 -105.88000 31879 ft 372 kts 248°
2026-05-05 03:53 35.31879 -106.07437 31895 ft 370 kts 248°
2026-05-05 03:53 35.26267 -106.22743 31642 ft 373 kts 248°
2026-05-05 03:53 35.22008 -106.34279 31720 ft 370 kts 248°
2026-05-05 03:54 35.14969 -106.53263 31848 ft 371 kts 248°
2026-05-05 03:54 35.06469 -106.76041 31960 ft 367 kts 247°
2026-05-05 03:55 35.02852 -106.87735 31773 ft 364 kts 253°
2026-05-05 03:55 34.99781 -106.99649 31848 ft 368 kts 253°
2026-05-05 03:55 34.93585 -107.23674 31758 ft 375 kts 252°
2026-05-05 03:56 34.87310 -107.47796 31816 ft 378 kts 252°
2026-05-05 03:56 34.80899 -107.72179 31823 ft 379 kts 252°
2026-05-05 03:57 34.74435 -107.96620 31811 ft 378 kts 251°
2026-05-05 03:57 34.67949 -108.20847 31797 ft 377 kts 251°
2026-05-05 03:58 34.61415 -108.45046 31851 ft 376 kts 251°
2026-05-05 03:58 34.54902 -108.69015 31836 ft 376 kts 251°
2026-05-05 03:59 34.48331 -108.92964 31813 ft 374 kts 250°
2026-05-05 03:59 34.41710 -109.16695 31786 ft 372 kts 248°
2026-05-05 04:00 34.33852 -109.39736 32007 ft 367 kts 247°
2026-05-05 04:00 34.25997 -109.62935 32055 ft 374 kts 246°
2026-05-05 04:01 34.18067 -109.86134 32064 ft 380 kts 246°
2026-05-05 04:01 34.09966 -110.09655 31909 ft 378 kts 246°
2026-05-05 04:02 34.01846 -110.33104 31986 ft 374 kts 246°
2026-05-05 04:02 33.93716 -110.56351 32021 ft 377 kts 245°
2026-05-05 04:03 33.85539 -110.79611 31867 ft 380 kts 245°
2026-05-05 04:03 33.77317 -111.02767 31784 ft 373 kts 245°
2026-05-05 04:04 33.73274 -111.14143 31914 ft 373 kts 244°
2026-05-05 04:04 33.69187 -111.25596 31930 ft 368 kts 244°
2026-05-05 04:04 33.60963 -111.48423 31934 ft 374 kts 244°
2026-05-05 04:05 33.52729 -111.71214 31847 ft 373 kts 244°
2026-05-05 04:05 33.44523 -111.93696 32006 ft 365 kts 243°
2026-05-05 04:06 33.38810 -112.03628 32024 ft 364 kts 231°
2026-05-05 04:06 33.32486 -112.13116 31938 ft 368 kts 232°
2026-05-05 04:06 33.19880 -112.31790 31959 ft 363 kts 231°
2026-05-05 04:07 33.07220 -112.50437 31925 ft 357 kts 231°
2026-05-05 04:07 32.95451 -112.69305 31913 ft 363 kts 249°
2026-05-05 04:08 32.92143 -112.93316 31940 ft 368 kts 253°
2026-05-05 04:08 32.88852 -113.17381 31930 ft 368 kts 253°
2026-05-05 04:09 32.85548 -113.41212 31891 ft 366 kts 252°
2026-05-05 04:09 32.82184 -113.65098 31913 ft 366 kts 252°
2026-05-05 04:10 32.78807 -113.88760 31922 ft 363 kts 252°
2026-05-05 04:10 32.77529 -114.00452 31878 ft 374 kts 259°
2026-05-05 04:10 32.77627 -114.12827 31902 ft 377 kts 263°
2026-05-05 04:11 32.78754 -114.37774 31963 ft 383 kts 266°
2026-05-05 04:11 32.81998 -114.50324 31930 ft 399 kts 276°
2026-05-05 04:11 32.85420 -114.62882 31941 ft 400 kts 275°
2026-05-05 04:12 32.87901 -114.75475 31914 ft 374 kts 258°
2026-05-05 04:12 32.87583 -114.87836 31935 ft 375 kts 259°
2026-05-05 04:12 32.87029 -115.12678 31895 ft 373 kts 258°
2026-05-05 04:13 32.86078 -115.37138 31902 ft 365 kts 252°
2026-05-05 04:13 32.84872 -115.45577 31719 ft 366 kts 252°
2026-05-05 04:14 32.84453 -115.48547 30710 ft 374 kts 252°
2026-05-05 04:14 32.83996 -115.51620 29649 ft 380 kts 252°
2026-05-05 04:14 32.83501 -115.54725 28498 ft 385 kts 252°
2026-05-05 04:14 32.82975 -115.57876 27302 ft 392 kts 252°
2026-05-05 04:15 32.82431 -115.61078 26061 ft 400 kts 253°
2026-05-05 04:15 32.81877 -115.64354 24866 ft 409 kts 254°
2026-05-05 04:15 32.81315 -115.67711 23596 ft 419 kts 255°
2026-05-05 04:15 32.80758 -115.71116 22636 ft 418 kts 256°
2026-05-05 04:16 32.80211 -115.74496 21795 ft 414 kts 256°
2026-05-05 04:16 32.79670 -115.77846 20896 ft 412 kts 256°
2026-05-05 04:16 32.79129 -115.81175 20029 ft 410 kts 256°
2026-05-05 04:16 32.78601 -115.84463 19334 ft 406 kts 258°
2026-05-05 04:17 32.78302 -115.87806 18702 ft 407 kts 262°
2026-05-05 04:17 32.78049 -115.91139 18054 ft 404 kts 262°
2026-05-05 04:17 32.77802 -115.94446 17275 ft 400 kts 262°
2026-05-05 04:17 32.77558 -115.97726 16448 ft 398 kts 262°
2026-05-05 04:18 32.77316 -116.00995 15696 ft 396 kts 262°
2026-05-05 04:18 32.77077 -116.04227 15353 ft 377 kts 262°
2026-05-05 04:18 32.76888 -116.07058 16307 ft 334 kts 262°
2026-05-05 04:18 32.76685 -116.09851 15309 ft 346 kts 262°
2026-05-05 04:19 32.76454 -116.12751 14225 ft 359 kts 262°
2026-05-05 04:19 32.76209 -116.15758 13080 ft 373 kts 262°
2026-05-05 04:19 32.75959 -116.18853 12173 ft 378 kts 262°
2026-05-05 04:19 32.75713 -116.21954 11497 ft 376 kts 262°
2026-05-05 04:20 32.75474 -116.25032 11067 ft 367 kts 263°
2026-05-05 04:20 32.75253 -116.27943 10936 ft 349 kts 262°
2026-05-05 04:20 32.75045 -116.30723 10952 ft 328 kts 262°
2026-05-05 04:20 32.74846 -116.33342 10923 ft 309 kts 262°
2026-05-05 04:21 32.74652 -116.35851 10685 ft 300 kts 262°
2026-05-05 04:21 32.74463 -116.38289 10457 ft 292 kts 262°
2026-05-05 04:21 32.74278 -116.40658 10222 ft 285 kts 262°
2026-05-05 04:21 32.74095 -116.42990 9988 ft 282 kts 262°
2026-05-05 04:22 32.73914 -116.45266 9931 ft 269 kts 262°
2026-05-05 04:22 32.73743 -116.47436 9960 ft 261 kts 262°
2026-05-05 04:22 32.73573 -116.49575 9968 ft 260 kts 261°
2026-05-05 04:22 32.73393 -116.51711 9897 ft 259 kts 261°
2026-05-05 04:23 32.73192 -116.53832 9762 ft 258 kts 261°
2026-05-05 04:23 32.72986 -116.55921 9461 ft 261 kts 261°
2026-05-05 04:23 32.72765 -116.58129 8549 ft 278 kts 262°
2026-05-05 04:23 32.72536 -116.60425 8111 ft 279 kts 263°
2026-05-05 04:24 32.72311 -116.62690 7840 ft 274 kts 263°
2026-05-05 04:24 32.72094 -116.64916 7562 ft 268 kts 263°
2026-05-05 04:24 32.71888 -116.67102 7290 ft 265 kts 265°
2026-05-05 04:25 32.71549 -116.71376 6739 ft 254 kts 265°
2026-05-05 04:25 32.71395 -116.73438 6472 ft 248 kts 266°
2026-05-05 04:25 32.71242 -116.75464 6186 ft 245 kts 266°
2026-05-05 04:25 32.71090 -116.77452 6010 ft 238 kts 265°
2026-05-05 04:26 32.70943 -116.79363 5987 ft 226 kts 266°
2026-05-05 04:26 32.70798 -116.81214 5992 ft 226 kts 264°
2026-05-05 04:26 32.70404 -116.83042 5399 ft 241 kts 251°
2026-05-05 04:26 32.69788 -116.85003 4617 ft 259 kts 251°
2026-05-05 04:27 32.69141 -116.87072 3753 ft 275 kts 252°
2026-05-05 04:27 32.68893 -116.89346 2885 ft 291 kts 271°
2026-05-05 04:27 32.69039 -116.91732 2750 ft 278 kts 274°
2026-05-05 04:27 32.69261 -116.93936 2775 ft 261 kts 277°
2026-05-05 04:28 32.69454 -116.96107 2095 ft 271 kts 272°
2026-05-05 04:28 32.69558 -116.98408 1357 ft 281 kts 271°
2026-05-05 04:28 32.69593 -117.00528 2079 ft 233 kts 269°
2026-05-05 04:28 32.69580 -117.02284 2601 ft 192 kts 266°
2026-05-05 04:29 32.69526 -117.03760 2668 ft 174 kts 264°
2026-05-05 04:29 32.69449 -117.05280 1965 ft 195 kts 268°
2026-05-05 04:29 32.69537 -117.06886 1789 ft 189 kts 282°
2026-05-05 04:29 32.69960 -117.08319 1627 ft 185 kts 291°
2026-05-05 04:30 32.70487 -117.09773 1118 ft 198 kts 292°
2026-05-05 04:30 32.71094 -117.11262 1263 ft 190 kts 295°
2026-05-05 04:30 32.71679 -117.12526 1345 ft 171 kts 296°
2026-05-05 04:30 32.72181 -117.13824 927 ft 170 kts 284°
2026-05-05 04:31 32.72408 -117.15127 721 ft 154 kts 281°
2026-05-05 04:31 32.72696 -117.16323 429 ft 149 kts 286°
2026-05-05 04:31 32.72988 -117.17484 110 ft 145 kts 284°
2026-05-05 04:31 32.73256 -117.18608 30 ft 141 kts 284°
2026-05-05 04:32 32.73452 -117.19399 30 ft 56 kts 286°
2026-05-05 04:32 32.73501 -117.19587 27 ft 15 kts 287°
2026-05-05 04:32 32.73533 -117.19710 30 ft 16 kts 288°
2026-05-05 04:32 32.73537 -117.19732 30 ft 7 kts 276°
2026-05-05 04:33 32.73520 -117.19805 29 ft 11 kts 248°
2026-05-05 04:33 32.73479 -117.19936 26 ft 21 kts 255°
2026-05-05 04:33 32.73479 -117.20100 27 ft 20 kts 294°
2026-05-05 04:33 32.73494 -117.20263 24 ft 17 kts 253°
2026-05-05 04:34 32.73460 -117.20331 25 ft 0 kts 232°
2026-05-05 04:34 32.73452 -117.20343 22 ft 0 kts 232°